datetime,pool elevation
1989-07-02,8170.56982
1989-07-03,8171.02002
1989-07-04,8171.43018
1989-07-05,8171.29004
1989-07-06,8171.50977
1989-07-07,8171.58008
1989-07-08,8171.16016
1989-07-09,8170.12988
1989-07-10,8169.91992
1989-07-11,8169.93018
1989-07-12,8170.41016
1989-07-13,8171.08008
1989-07-14,8171.27979
1989-07-15,8170.66992
1989-07-16,8169.75977
1989-07-17,8169.6499
1989-07-18,8169.47998
1989-07-19,8169.41992
1989-07-20,8169.31982
1989-07-21,8169.27979
1989-07-22,8169.31006
1989-07-23,
1989-07-24,8169.43994
1989-07-25,8169.4502
1989-07-26,8169.4502
1989-07-27,8169.4502
1989-07-28,8169.4502
1989-07-29,
1989-07-30,
1989-07-31,8169.4502
1989-08-01,8169.31006
1989-08-02,8169.18018
1989-08-03,8169.00977
1989-08-04,8168.83984
1989-08-05,8168.66016
1989-08-06,
1989-08-07,8168.3999
1989-08-08,8168.27002
1989-08-09,8168.27979
1989-08-10,8168.33008
1989-08-11,8168.49023
1989-08-12,
1989-08-13,
1989-08-14,8168.62012
1989-08-15,8168.75
1989-08-16,8168.87012
1989-08-17,8168.95996
1989-08-18,8168.97021
1989-08-19,
1989-08-20,
1989-08-21,8169.1499
1989-08-22,8169.18018
1989-08-23,8169.18994
1989-08-24,8169.16992
1989-08-25,8169.10986
1989-08-26,
1989-08-27,
1989-08-28,8168.93018
1989-08-29,8168.8501
1989-08-30,8168.77979
1989-08-31,8168.68018
1989-09-01,8168.56982
1989-09-02,
1989-09-03,
1989-09-04,
1989-09-05,8168.70996
1989-09-06,8168.72998
1989-09-07,8168.75977
1989-09-08,8168.68994
1989-09-09,
1989-09-10,
1989-09-11,8168.31982
1989-09-12,8168.20996
1989-09-13,8168.08984
1989-09-14,8167.95996
1989-09-15,8167.8501
1989-09-16,
1989-09-17,
1989-09-18,8167.60986
1989-09-19,8167.72998
1989-09-20,8167.7998
1989-09-21,8167.93018
1989-09-22,8168.00977
1989-09-23,
1989-09-24,
1989-09-25,8167.97998
1989-09-26,8167.93994
1989-09-27,8167.89014
1989-09-28,
1989-09-29,8167.87012
1989-09-30,8168.01318
1989-10-01,
1989-10-02,8168.3
1989-10-03,8168.47
1989-10-04,
1989-10-05,
1989-10-06,
1989-10-07,
1989-10-08,
1989-10-09,
1989-10-10,8169.4
1989-10-11,8169.5
1989-10-12,
1989-10-13,8169.75
1989-10-14,
1989-10-15,
1989-10-16,8170.1
1989-10-17,8170.09
1989-10-18,8170.09
1989-10-19,8170.11
1989-10-20,8170.12
1989-10-21,
1989-10-22,
1989-10-23,8170.21
1989-10-24,8170.21
1989-10-25,
1989-10-26,
1989-10-27,8170.14
1989-10-28,
1989-10-29,
1989-10-30,
1989-10-31,8170.06
1989-11-01,8169.55
1989-11-02,8168.69
1989-11-03,8167.34
1989-11-04,
1989-11-05,
1989-11-06,8166.71
1989-11-07,8165.85
1989-11-08,8164.46
1989-11-09,8162.66
1989-11-10,
1989-11-11,
1989-11-12,
1989-11-13,8155.42
1989-11-14,8153.61
1989-11-15,
1989-11-16,
1989-11-17,8147.8
1989-11-18,
1989-11-19,
1989-11-20,8141.82
1989-11-21,
1989-11-22,8137.84
1989-11-23,
1989-11-24,
1989-11-25,
1989-11-26,
1989-11-27,8127.92
1989-11-28,
1989-11-29,
1989-11-30,8121.84
1989-12-01,8119.89
1989-12-02,
1989-12-03,
1989-12-04,8113.91
1989-12-05,
1989-12-06,8109.87
1989-12-07,
1989-12-08,
1989-12-09,
1989-12-10,
1989-12-11,8099.74
1989-12-12,8099.64
1989-12-13,8099.51
1989-12-14,
1989-12-15,
1989-12-16,
1989-12-17,
1989-12-18,8098.92
1989-12-19,
1989-12-20,
1989-12-21,
1989-12-22,
1989-12-23,
1989-12-24,
1989-12-25,
1989-12-26,
1989-12-27,8097.82
1989-12-28,
1989-12-29,
1989-12-30,
1989-12-31,8097.35
1990-01-01,8097.22
1990-01-02,8097.05
1990-01-03,8096.93
1990-01-04,8096.8
1990-01-05,8096.67
1990-01-06,8096.55
1990-01-07,8096.4
1990-01-08,8096.24
1990-01-09,8096.14
1990-01-10,8096.0
1990-01-11,8095.89
1990-01-12,8095.73
1990-01-13,8095.6
1990-01-14,8095.51
1990-01-15,8095.47
1990-01-16,8095.35
1990-01-17,8095.3
1990-01-18,8095.1
1990-01-19,8094.86
1990-01-20,8094.77
1990-01-21,8094.6
1990-01-22,8094.45
1990-01-23,8094.33
1990-01-24,8094.15
1990-01-25,8094.0
1990-01-26,8093.85
1990-01-27,8093.67
1990-01-28,8093.54
1990-01-29,8093.36
1990-01-30,8093.24
1990-01-31,8093.12
1990-02-01,8093.06
1990-02-02,8092.97
1990-02-03,8093.04
1990-02-04,8093.08
1990-02-05,8093.11
1990-02-06,8093.14
1990-02-07,8093.15
1990-02-08,8093.19
1990-02-09,8093.2
1990-02-10,8093.25
1990-02-11,8093.27
1990-02-12,8093.31
1990-02-13,8093.37
1990-02-14,8093.4
1990-02-15,8093.5
1990-02-16,8093.56
1990-02-17,8093.59
1990-02-18,8093.61
1990-02-19,8093.75
1990-02-20,8093.82
1990-02-21,8093.86
1990-02-22,8093.9
1990-02-23,8093.95
1990-02-24,8093.97
1990-02-25,8093.98
1990-02-26,8094.01
1990-02-27,8094.02
1990-02-28,8094.04
1990-03-01,8094.06
1990-03-02,8094.07
1990-03-03,8094.08
1990-03-04,8094.12
1990-03-05,8094.14
1990-03-06,8094.17
1990-03-07,8094.23
1990-03-08,8094.26
1990-03-09,8094.28
1990-03-10,8094.32
1990-03-11,8094.34
1990-03-12,8094.4
1990-03-13,8094.45
1990-03-14,8094.37
1990-03-15,8094.27
1990-03-16,8094.15
1990-03-17,8094.04
1990-03-18,8093.93
1990-03-19,8093.8
1990-03-20,8093.34
1990-03-21,8092.38
1990-03-22,8091.08
1990-03-23,8089.59
1990-03-24,8088.07
1990-03-25,8086.53
1990-03-26,8084.97
1990-03-27,8083.4
1990-03-28,8081.95
1990-03-29,8080.45
1990-03-30,8078.95
1990-03-31,8077.45
1990-04-01,8075.95
1990-04-02,8074.45
1990-04-03,8072.75
1990-04-04,8070.71
1990-04-05,8068.82
1990-04-06,8066.82
1990-04-07,8064.4
1990-04-08,8061.98
1990-04-09,8059.67
1990-04-10,8057.33
1990-04-11,8054.9
1990-04-12,8052.55
1990-04-13,8050.32
1990-04-14,8048.34
1990-04-15,8046.54
1990-04-16,8044.87
1990-04-17,8042.83
1990-04-18,8040.33
1990-04-19,8038.12
1990-04-20,8035.36
1990-04-21,8034.45
1990-04-22,8036.03
1990-04-23,8037.36
1990-04-24,8038.63
1990-04-25,8040.0
1990-04-26,8041.2
1990-04-27,8042.37
1990-04-28,8043.5
1990-04-29,8044.9
1990-04-30,8046.27
1990-05-01,8047.34
1990-05-02,8048.14
1990-05-03,8049.0
1990-05-04,8049.82
1990-05-05,8050.76
1990-05-06,8051.73
1990-05-07,8053.32
1990-05-08,8055.53
1990-05-09,8057.08
1990-05-10,8058.4
1990-05-11,8059.48
1990-05-12,8061.15
1990-05-13,8062.35
1990-05-14,8063.5
1990-05-15,8064.67
1990-05-16,8065.83
1990-05-17,8067.0
1990-05-18,8068.46
1990-05-19,8070.18
1990-05-20,8072.17
1990-05-21,8074.03
1990-05-22,8076.31
1990-05-23,8079.67
1990-05-24,8083.83
1990-05-25,8087.73
1990-05-26,8090.55
1990-05-27,8092.96
1990-05-28,8095.12
1990-05-29,8097.4
1990-05-30,8099.22
1990-05-31,8101.45
1990-06-01,8104.32
1990-06-02,8106.97
1990-06-03,8109.23
1990-06-04,8111.95
1990-06-05,8115.92
1990-06-06,8120.63
1990-06-07,8126.45
1990-06-08,8131.9
1990-06-09,8134.6
1990-06-10,8137.67
1990-06-11,8141.16
1990-06-12,8146.07
1990-06-13,8147.98
1990-06-14,8150.1
1990-06-15,8152.25
1990-06-16,8154.35
1990-06-17,8156.35
1990-06-18,8158.33
1990-06-19,8160.62
1990-06-20,8162.8
1990-06-21,8164.07
1990-06-22,8164.67
1990-06-23,8165.17
1990-06-24,8166.36
1990-06-25,8167.97
1990-06-26,8169.44
1990-06-27,8170.68
1990-06-28,8171.06
1990-06-29,8170.97
1990-06-30,8170.84
1990-07-01,8170.85
1990-07-02,8170.88
1990-07-03,8170.92
1990-07-04,8170.82
1990-07-05,8170.63
1990-07-06,8170.1
1990-07-07,8169.58
1990-07-08,8169.37
1990-07-09,8169.35
1990-07-10,8169.34
1990-07-11,8169.25
1990-07-12,8168.86
1990-07-13,8168.77
1990-07-14,8168.75
1990-07-15,8168.68
1990-07-16,8168.61
1990-07-17,8168.66
1990-07-18,8168.56
1990-07-19,8168.48
1990-07-20,8168.44
1990-07-21,8168.32
1990-07-22,8168.15
1990-07-23,8167.97
1990-07-24,8167.9
1990-07-25,8167.97
1990-07-26,8168.06
1990-07-27,8168.1
1990-07-28,8168.06
1990-07-29,8168.0
1990-07-30,8167.9
1990-07-31,8167.74
1990-08-01,8167.92
1990-08-02,8168.21
1990-08-03,8168.54
1990-08-04,8168.77
1990-08-05,8169.12
1990-08-06,8169.36
1990-08-07,8169.55
1990-08-08,8169.76
1990-08-09,8169.97
1990-08-10,8170.1
1990-08-11,8170.17
1990-08-12,8170.23
1990-08-13,8170.23
1990-08-14,8170.27
1990-08-15,8170.3
1990-08-16,8170.33
1990-08-17,8170.45
1990-08-18,8170.53
1990-08-19,8170.56
1990-08-20,8170.65
1990-08-21,8170.7
1990-08-22,8170.73
1990-08-23,8170.74
1990-08-24,8170.73
1990-08-25,8170.69
1990-08-26,8170.65
1990-08-27,8170.6
1990-08-28,8170.56
1990-08-29,8170.49
1990-08-30,8170.43
1990-08-31,8170.45
1990-09-01,8170.46
1990-09-02,8170.45
1990-09-03,8170.46
1990-09-04,8170.51
1990-09-05,8170.59
1990-09-06,8170.61
1990-09-07,8170.45
1990-09-08,8169.94
1990-09-09,8169.32
1990-09-10,8168.27
1990-09-11,8167.0
1990-09-12,8165.4
1990-09-13,8163.46
1990-09-14,8161.67
1990-09-15,8159.87
1990-09-16,8158.12
1990-09-17,
1990-09-18,
1990-09-19,
1990-09-20,
1990-09-21,
1990-09-22,
1990-09-23,
1990-09-24,
1990-09-25,
1990-09-26,
1990-09-27,
1990-09-28,
1990-09-29,
1990-09-30,8132.3
1990-10-01,8130.23
1990-10-02,8128.16
1990-10-03,8126.09
1990-10-04,8124.02
1990-10-05,8121.95
1990-10-06,8119.88
1990-10-07,8117.81
1990-10-08,8115.7
1990-10-09,8113.5
1990-10-10,8111.35
1990-10-11,8109.13
1990-10-12,8106.87
1990-10-13,8104.51
1990-10-14,8102.23
1990-10-15,8099.92
1990-10-16,8097.58
1990-10-17,8095.15
1990-10-18,8092.52
1990-10-19,8090.0
1990-10-20,8087.55
1990-10-21,8084.86
1990-10-22,8082.33
1990-10-23,8079.7
1990-10-24,8078.6
1990-10-25,8078.83
1990-10-26,8079.06
1990-10-27,8079.27
1990-10-28,8079.48
1990-10-29,8079.67
1990-10-30,8079.87
1990-10-31,8080.0
1990-11-01,8080.17
1990-11-02,8080.37
1990-11-03,8080.55
1990-11-04,8080.68
1990-11-05,8080.87
1990-11-06,8081.06
1990-11-07,8081.18
1990-11-08,8081.32
1990-11-09,8081.53
1990-11-10,8081.68
1990-11-11,8081.86
1990-11-12,8082.03
1990-11-13,8082.2
1990-11-14,8082.34
1990-11-15,8082.46
1990-11-16,8082.6
1990-11-17,8082.69
1990-11-18,8082.83
1990-11-19,8082.95
1990-11-20,8083.07
1990-11-21,8083.25
1990-11-22,8083.36
1990-11-23,8083.49
1990-11-24,8083.64
1990-11-25,8083.78
1990-11-26,8083.88
1990-11-27,8084.0
1990-11-28,8084.13
1990-11-29,8084.22
1990-11-30,8084.3
1990-12-01,8084.42
1990-12-02,8084.51
1990-12-03,8084.6
1990-12-04,8084.69
1990-12-05,8084.7
1990-12-06,8084.84
1990-12-07,8084.89
1990-12-08,8085.0
1990-12-09,8085.1
1990-12-10,8085.19
1990-12-11,8085.28
1990-12-12,8085.38
1990-12-13,8085.47
1990-12-14,8085.56
1990-12-15,8085.65
1990-12-16,8085.74
1990-12-17,8085.84
1990-12-18,8085.89
1990-12-19,8085.94
1990-12-20,8086.07
1990-12-21,8086.21
1990-12-22,8086.23
1990-12-23,8086.35
1990-12-24,8086.4
1990-12-25,8086.48
1990-12-26,8086.54
1990-12-27,8086.63
1990-12-28,8086.64
1990-12-29,8086.71
1990-12-30,8086.76
1990-12-31,8086.82
1991-01-01,8086.87
1991-01-02,8086.92
1991-01-03,8086.96
1991-01-04,8086.99
1991-01-05,8087.06
1991-01-06,8087.11
1991-01-07,8087.15
1991-01-08,8087.18
1991-01-09,8087.23
1991-01-10,8087.32
1991-01-11,8087.33
1991-01-12,8087.36
1991-01-13,8087.4
1991-01-14,8087.44
1991-01-15,8087.47
1991-01-16,8087.07
1991-01-17,8085.78
1991-01-18,8085.13
1991-01-19,8085.17
1991-01-20,8085.25
1991-01-21,8085.27
1991-01-22,8085.34
1991-01-23,8085.17
1991-01-24,8084.31
1991-01-25,8082.27
1991-01-26,8080.89
1991-01-27,8080.37
1991-01-28,8079.78
1991-01-29,8079.48
1991-01-30,8079.5
1991-01-31,8079.5
1991-02-01,8079.67
1991-02-02,8079.64
1991-02-03,8079.56
1991-02-04,8079.53
1991-02-05,8079.5
1991-02-06,8079.45
1991-02-07,8079.4
1991-02-08,8079.39
1991-02-09,8079.35
1991-02-10,8079.27
1991-02-11,8079.23
1991-02-12,8079.17
1991-02-13,8079.15
1991-02-14,8079.13
1991-02-15,8079.08
1991-02-16,8079.06
1991-02-17,8079.05
1991-02-18,8079.04
1991-02-19,8079.01
1991-02-20,8078.98
1991-02-21,8078.97
1991-02-22,8078.95
1991-02-23,8078.93
1991-02-24,8078.89
1991-02-25,8078.84
1991-02-26,8078.78
1991-02-27,8078.75
1991-02-28,8078.69
1991-03-01,8078.67
1991-03-02,8078.66
1991-03-03,8078.66
1991-03-04,8078.65
1991-03-05,8078.69
1991-03-06,8078.74
1991-03-07,8078.75
1991-03-08,8078.77
1991-03-09,8078.72
1991-03-10,8078.77
1991-03-11,8078.78
1991-03-12,8078.75
1991-03-13,8078.78
1991-03-14,8078.82
1991-03-15,8078.82
1991-03-16,8078.82
1991-03-17,8078.82
1991-03-18,8078.8
1991-03-19,8078.79
1991-03-20,8078.78
1991-03-21,8078.73
1991-03-22,8078.77
1991-03-23,8078.74
1991-03-24,8078.71
1991-03-25,8078.69
1991-03-26,8078.72
1991-03-27,8078.7
1991-03-28,8078.67
1991-03-29,8078.65
1991-03-30,8078.61
1991-03-31,8078.61
1991-04-01,8078.58
1991-04-02,8078.56
1991-04-03,8078.52
1991-04-04,8077.94
1991-04-05,8076.4
1991-04-06,8074.49
1991-04-07,8072.42
1991-04-08,8070.34
1991-04-09,8067.98
1991-04-10,8065.35
1991-04-11,8062.66
1991-04-12,8059.98
1991-04-13,8057.56
1991-04-14,8055.38
1991-04-15,8053.21
1991-04-16,8051.23
1991-04-17,8049.3
1991-04-18,8047.35
1991-04-19,8045.27
1991-04-20,8043.37
1991-04-21,8041.57
1991-04-22,8039.71
1991-04-23,8037.87
1991-04-24,8036.1
1991-04-25,8034.11
1991-04-26,8032.15
1991-04-27,8030.1
1991-04-28,8028.98
1991-04-29,8028.62
1991-04-30,8028.45
1991-05-01,8028.52
1991-05-02,8028.56
1991-05-03,8028.51
1991-05-04,8028.47
1991-05-05,8028.46
1991-05-06,8028.52
1991-05-07,8028.57
1991-05-08,8028.67
1991-05-09,8029.05
1991-05-10,8029.4
1991-05-11,8029.5
1991-05-12,8029.36
1991-05-13,8029.28
1991-05-14,8029.33
1991-05-15,8029.46
1991-05-16,8029.47
1991-05-17,8029.57
1991-05-18,8030.19
1991-05-19,8030.47
1991-05-20,8031.18
1991-05-21,8032.6
1991-05-22,8034.65
1991-05-23,8037.05
1991-05-24,8039.35
1991-05-25,8043.03
1991-05-26,8047.2
1991-05-27,8053.87
1991-05-28,8059.96
1991-05-29,8064.44
1991-05-30,8068.12
1991-05-31,8070.49
1991-06-01,8070.6
1991-06-02,8069.63
1991-06-03,8068.15
1991-06-04,8067.35
1991-06-05,8067.94
1991-06-06,8071.37
1991-06-07,8075.13
1991-06-08,8080.4
1991-06-09,8087.41
1991-06-10,8094.97
1991-06-11,8103.5
1991-06-12,8112.48
1991-06-13,8118.6
1991-06-14,8124.06
1991-06-15,8128.15
1991-06-16,8130.57
1991-06-17,8134.58
1991-06-18,8138.13
1991-06-19,8141.16
1991-06-20,8143.63
1991-06-21,8145.8
1991-06-22,8147.47
1991-06-23,8148.7
1991-06-24,8149.6
1991-06-25,8150.98
1991-06-26,8152.58
1991-06-27,8154.5
1991-06-28,8156.2
1991-06-29,8157.63
1991-06-30,8159.09
1991-07-01,8160.3
1991-07-02,8161.58
1991-07-03,8162.8
1991-07-04,8164.0
1991-07-05,8165.14
1991-07-06,8166.21
1991-07-07,8167.17
1991-07-08,8168.11
1991-07-09,8169.37
1991-07-10,8170.76
1991-07-11,8171.33
1991-07-12,8170.8
1991-07-13,8170.0
1991-07-14,8169.2
1991-07-15,8169.13
1991-07-16,8169.02
1991-07-17,8168.92
1991-07-18,8168.95
1991-07-19,8169.1
1991-07-20,8169.2
1991-07-21,8169.23
1991-07-22,8169.33
1991-07-23,8169.27
1991-07-24,8169.27
1991-07-25,8169.35
1991-07-26,8169.37
1991-07-27,8169.3
1991-07-28,8169.15
1991-07-29,8169.0
1991-07-30,8168.75
1991-07-31,8168.48
1991-08-01,8168.2
1991-08-02,8168.14
1991-08-03,8168.41
1991-08-04,8168.7
1991-08-05,8168.82
1991-08-06,8168.96
1991-08-07,8169.05
1991-08-08,8169.11
1991-08-09,8169.13
1991-08-10,8169.07
1991-08-11,8169.05
1991-08-12,8169.06
1991-08-13,8169.14
1991-08-14,8169.14
1991-08-15,8169.11
1991-08-16,8169.35
1991-08-17,8169.4
1991-08-18,8169.04
1991-08-19,8168.77
1991-08-20,8169.21
1991-08-21,8169.7
1991-08-22,8170.15
1991-08-23,8170.54
1991-08-24,8170.83
1991-08-25,8170.87
1991-08-26,8171.2
1991-08-27,8170.97
1991-08-28,8170.94
1991-08-29,8171.4
1991-08-30,8171.06
1991-08-31,8170.53
1991-09-01,8169.6
1991-09-02,8168.57
1991-09-03,8167.55
1991-09-04,8166.28
1991-09-05,8164.73
1991-09-06,8163.17
1991-09-07,8161.73
1991-09-08,8160.57
1991-09-09,8159.3
1991-09-10,8158.05
1991-09-11,8156.93
1991-09-12,8156.03
1991-09-13,8155.0
1991-09-14,8153.82
1991-09-15,8152.67
1991-09-16,8151.46
1991-09-17,8150.17
1991-09-18,8148.87
1991-09-19,8147.5
1991-09-20,8146.09
1991-09-21,8145.82
1991-09-22,8146.23
1991-09-23,8146.61
1991-09-24,8146.95
1991-09-25,8147.3
1991-09-26,8147.68
1991-09-27,8148.0
1991-09-28,8148.32
1991-09-29,8148.67
1991-09-30,8149.07
1991-10-01,8149.43
1991-10-02,8149.76
1991-10-03,8150.0
1991-10-04,8150.22
1991-10-05,8150.45
1991-10-06,8150.71
1991-10-07,8150.92
1991-10-08,8151.14
1991-10-09,8151.35
1991-10-10,8151.55
1991-10-11,8151.75
1991-10-12,8151.93
1991-10-13,8152.12
1991-10-14,8152.25
1991-10-15,8152.39
1991-10-16,8152.51
1991-10-17,8152.65
1991-10-18,8152.78
1991-10-19,8152.9
1991-10-20,8153.03
1991-10-21,8153.13
1991-10-22,8153.27
1991-10-23,8153.39
1991-10-24,8153.56
1991-10-25,8153.67
1991-10-26,8153.83
1991-10-27,8153.99
1991-10-28,8154.24
1991-10-29,8154.35
1991-10-30,8154.45
1991-10-31,8154.57
1991-11-01,8154.71
1991-11-02,8154.86
1991-11-03,8155.0
1991-11-04,8155.18
1991-11-05,8155.35
1991-11-06,8155.54
1991-11-07,8155.74
1991-11-08,8155.86
1991-11-09,8156.02
1991-11-10,8156.2
1991-11-11,8156.37
1991-11-12,8156.5
1991-11-13,8156.62
1991-11-14,8156.72
1991-11-15,8156.89
1991-11-16,8157.07
1991-11-17,8157.2
1991-11-18,8157.33
1991-11-19,8157.45
1991-11-20,8157.6
1991-11-21,8157.74
1991-11-22,8157.87
1991-11-23,8157.95
1991-11-24,8158.02
1991-11-25,8158.22
1991-11-26,8158.35
1991-11-27,8158.5
1991-11-28,8158.65
1991-11-29,8158.74
1991-11-30,8158.82
1991-12-01,8158.87
1991-12-02,8159.04
1991-12-03,8159.25
1991-12-04,8159.3
1991-12-05,8159.39
1991-12-06,8159.54
1991-12-07,8159.62
1991-12-08,8159.7
1991-12-09,8159.8
1991-12-10,8159.88
1991-12-11,8159.93
1991-12-12,8159.98
1991-12-13,8160.01
1991-12-14,8160.05
1991-12-15,8160.1
1991-12-16,8160.15
1991-12-17,8160.17
1991-12-18,8160.2
1991-12-19,8160.14
1991-12-20,8159.7
1991-12-21,8158.86
1991-12-22,8157.86
1991-12-23,8156.86
1991-12-24,8155.52
1991-12-25,8153.71
1991-12-26,8151.76
1991-12-27,8149.87
1991-12-28,8147.91
1991-12-29,8145.9
1991-12-30,8143.87
1991-12-31,8141.86
1992-01-01,8139.86
1992-01-02,8137.83
1992-01-03,8135.78
1992-01-04,8133.73
1992-01-05,8131.75
1992-01-06,8129.73
1992-01-07,8127.75
1992-01-08,8125.74
1992-01-09,8123.68
1992-01-10,8121.67
1992-01-11,8119.7
1992-01-12,8117.62
1992-01-13,8115.57
1992-01-14,8113.49
1992-01-15,8111.44
1992-01-16,8109.45
1992-01-17,8107.43
1992-01-18,8105.37
1992-01-19,8103.32
1992-01-20,8101.3
1992-01-21,8099.28
1992-01-22,8097.25
1992-01-23,8095.2
1992-01-24,8093.13
1992-01-25,8091.15
1992-01-26,8089.15
1992-01-27,8087.13
1992-01-28,8085.1
1992-01-29,8083.04
1992-01-30,8081.03
1992-01-31,8080.15
1992-02-01,8080.2
1992-02-02,8080.23
1992-02-03,8080.25
1992-02-04,8080.27
1992-02-05,8080.27
1992-02-06,8080.27
1992-02-07,8080.25
1992-02-08,8080.25
1992-02-09,8080.25
1992-02-10,8080.25
1992-02-11,8080.27
1992-02-12,8080.31
1992-02-13,8080.34
1992-02-14,8080.4
1992-02-15,8080.42
1992-02-16,8080.44
1992-02-17,8080.47
1992-02-18,8080.5
1992-02-19,8080.54
1992-02-20,8080.55
1992-02-21,8080.55
1992-02-22,8080.56
1992-02-23,8080.58
1992-02-24,8080.55
1992-02-25,8080.54
1992-02-26,8080.54
1992-02-27,8080.54
1992-02-28,8080.28
1992-02-29,8079.43
1992-03-01,8078.33
1992-03-02,8077.23
1992-03-03,8075.72
1992-03-04,8073.66
1992-03-05,8071.13
1992-03-06,8069.12
1992-03-07,8067.15
1992-03-08,8065.19
1992-03-09,8063.27
1992-03-10,8061.23
1992-03-11,8059.07
1992-03-12,8056.97
1992-03-13,8054.88
1992-03-14,8052.82
1992-03-15,8050.75
1992-03-16,8048.75
1992-03-17,8046.79
1992-03-18,8044.9
1992-03-19,8043.09
1992-03-20,8041.4
1992-03-21,8039.8
1992-03-22,8038.1
1992-03-23,8036.3
1992-03-24,8034.76
1992-03-25,8034.06
1992-03-26,8034.1
1992-03-27,8034.17
1992-03-28,8034.22
1992-03-29,8034.25
1992-03-30,8034.29
1992-03-31,8034.3
1992-04-01,8034.27
1992-04-02,8034.24
1992-04-03,8033.67
1992-04-04,8032.69
1992-04-05,8031.55
1992-04-06,8030.81
1992-04-07,8030.22
1992-04-08,8029.83
1992-04-09,8029.53
1992-04-10,8029.4
1992-04-11,8029.43
1992-04-12,8029.52
1992-04-13,8029.7
1992-04-14,8029.47
1992-04-15,8029.27
1992-04-16,8029.29
1992-04-17,8029.28
1992-04-18,8029.36
1992-04-19,8029.34
1992-04-20,8029.24
1992-04-21,8029.18
1992-04-22,8029.21
1992-04-23,8029.22
1992-04-24,8029.17
1992-04-25,8029.18
1992-04-26,8029.3
1992-04-27,8029.63
1992-04-28,8030.17
1992-04-29,8031.13
1992-04-30,8032.45
1992-05-01,8034.27
1992-05-02,8034.87
1992-05-03,8036.51
1992-05-04,8037.15
1992-05-05,8038.13
1992-05-06,8039.4
1992-05-07,8040.52
1992-05-08,8041.06
1992-05-09,8041.5
1992-05-10,8041.9
1992-05-11,8041.15
1992-05-12,8040.33
1992-05-13,8041.8
1992-05-14,8045.25
1992-05-15,8047.24
1992-05-16,8049.1
1992-05-17,8053.57
1992-05-18,8059.57
1992-05-19,8064.9
1992-05-20,8070.17
1992-05-21,8077.42
1992-05-22,8082.43
1992-05-23,8086.6
1992-05-24,8090.22
1992-05-25,8094.0
1992-05-26,8098.42
1992-05-27,8102.65
1992-05-28,8106.6
1992-05-29,8109.73
1992-05-30,8112.53
1992-05-31,8115.14
1992-06-01,8117.47
1992-06-02,8119.66
1992-06-03,8121.75
1992-06-04,8123.95
1992-06-05,8126.05
1992-06-06,8127.75
1992-06-07,8129.31
1992-06-08,8130.74
1992-06-09,8132.12
1992-06-10,8133.51
1992-06-11,8134.83
1992-06-12,8136.18
1992-06-13,8137.33
1992-06-14,8138.45
1992-06-15,8139.45
1992-06-16,8140.5
1992-06-17,8141.54
1992-06-18,8142.55
1992-06-19,8143.35
1992-06-20,8144.16
1992-06-21,8144.92
1992-06-22,8145.78
1992-06-23,8146.4
1992-06-24,8146.96
1992-06-25,8147.65
1992-06-26,8148.32
1992-06-27,8148.8
1992-06-28,8149.3
1992-06-29,8149.73
1992-06-30,8150.0
1992-07-01,8150.34
1992-07-02,8150.67
1992-07-03,8150.72
1992-07-04,8150.42
1992-07-05,8150.69
1992-07-06,8150.87
1992-07-07,8151.08
1992-07-08,8151.29
1992-07-09,8151.54
1992-07-10,8151.74
1992-07-11,8151.9
1992-07-12,8152.08
1992-07-13,8152.6
1992-07-14,8152.92
1992-07-15,8153.11
1992-07-16,8153.26
1992-07-17,8153.39
1992-07-18,8153.48
1992-07-19,8153.55
1992-07-20,8153.62
1992-07-21,8153.69
1992-07-22,8153.75
1992-07-23,8153.76
1992-07-24,8153.66
1992-07-25,8153.41
1992-07-26,8153.26
1992-07-27,8153.1
1992-07-28,8152.95
1992-07-29,8152.89
1992-07-30,8152.84
1992-07-31,8152.79
1992-08-01,8152.65
1992-08-02,8152.51
1992-08-03,8152.47
1992-08-04,8152.27
1992-08-05,8152.18
1992-08-06,8152.11
1992-08-07,8152.04
1992-08-08,8151.97
1992-08-09,8151.88
1992-08-10,8151.85
1992-08-11,8151.83
1992-08-12,8151.7
1992-08-13,8151.39
1992-08-14,8150.7
1992-08-15,8149.7
1992-08-16,8148.63
1992-08-17,8147.58
1992-08-18,8146.55
1992-08-19,8145.6
1992-08-20,8144.95
1992-08-21,8144.57
1992-08-22,8144.26
1992-08-23,8143.96
1992-08-24,8143.73
1992-08-25,8143.46
1992-08-26,8143.18
1992-08-27,8142.88
1992-08-28,8142.61
1992-08-29,8142.33
1992-08-30,8142.02
1992-08-31,8141.73
1992-09-01,8141.6
1992-09-02,8141.45
1992-09-03,8141.2
1992-09-04,8140.95
1992-09-05,8140.72
1992-09-06,8140.48
1992-09-07,8140.15
1992-09-08,8139.84
1992-09-09,8139.43
1992-09-10,8138.81
1992-09-11,8137.98
1992-09-12,8136.96
1992-09-13,8135.67
1992-09-14,8134.3
1992-09-15,8132.77
1992-09-16,8130.97
1992-09-17,8129.15
1992-09-18,8127.15
1992-09-19,8125.1
1992-09-20,8123.01
1992-09-21,8120.95
1992-09-22,8118.95
1992-09-23,8116.95
1992-09-24,8114.85
1992-09-25,8112.87
1992-09-26,8110.85
1992-09-27,8108.86
1992-09-28,8106.82
1992-09-29,8104.78
1992-09-30,8102.7
1992-10-01,8100.65
1992-10-02,8098.63
1992-10-03,8096.52
1992-10-04,8094.53
1992-10-05,8092.57
1992-10-06,8090.57
1992-10-07,8088.57
1992-10-08,8086.94
1992-10-09,8085.8
1992-10-10,8084.65
1992-10-11,8083.54
1992-10-12,8082.42
1992-10-13,8081.28
1992-10-14,8080.8
1992-10-15,8080.8
1992-10-16,8080.78
1992-10-17,8080.79
1992-10-18,8080.8
1992-10-19,8080.8
1992-10-20,8080.8
1992-10-21,8080.8
1992-10-22,8080.81
1992-10-23,8080.84
1992-10-24,8080.86
1992-10-25,8080.88
1992-10-26,8080.96
1992-10-27,8081.04
1992-10-28,8081.13
1992-10-29,8081.38
1992-10-30,8081.46
1992-10-31,8081.72
1992-11-01,8081.88
1992-11-02,8081.99
1992-11-03,8082.15
1992-11-04,8082.23
1992-11-05,8082.29
1992-11-06,8082.41
1992-11-07,8082.52
1992-11-08,8082.6
1992-11-09,8082.67
1992-11-10,8082.76
1992-11-11,8082.78
1992-11-12,8082.83
1992-11-13,8082.89
1992-11-14,8082.96
1992-11-15,8083.04
1992-11-16,8083.06
1992-11-17,8083.11
1992-11-18,8083.14
1992-11-19,8083.2
1992-11-20,8083.24
1992-11-21,8083.26
1992-11-22,8083.27
1992-11-23,8083.3
1992-11-24,8083.31
1992-11-25,8083.32
1992-11-26,8083.32
1992-11-27,8083.33
1992-11-28,8083.34
1992-11-29,8083.37
1992-11-30,8083.37
1992-12-01,8083.38
1992-12-02,8083.39
1992-12-03,8083.41
1992-12-04,8083.47
1992-12-05,8083.44
1992-12-06,8083.42
1992-12-07,8083.42
1992-12-08,8083.42
1992-12-09,8083.42
1992-12-10,8083.47
1992-12-11,8083.48
1992-12-12,8083.54
1992-12-13,8083.6
1992-12-14,8083.66
1992-12-15,8083.65
1992-12-16,8083.67
1992-12-17,8083.69
1992-12-18,8083.76
1992-12-19,8083.77
1992-12-20,8083.79
1992-12-21,8083.81
1992-12-22,8083.83
1992-12-23,8083.83
1992-12-24,8083.83
1992-12-25,8083.82
1992-12-26,8083.78
1992-12-27,8083.77
1992-12-28,8083.77
1992-12-29,8083.82
1992-12-30,8083.85
1992-12-31,8083.87
1993-01-01,8083.88
1993-01-02,8083.92
1993-01-03,8083.98
1993-01-04,8084.0
1993-01-05,8084.02
1993-01-06,8084.02
1993-01-07,8084.03
1993-01-08,8084.05
1993-01-09,8084.07
1993-01-10,8084.14
1993-01-11,8084.19
1993-01-12,8084.2
1993-01-13,8084.25
1993-01-14,8084.3